Вернуться в каталог

APSTAR 6D

АктивенСвязьGEO
NORAD 45863·PAYLOAD·🇨🇳 China

Запущен Jul 9, 2020 с Xichang Satellite Launch Center

Loading…

TLE

СвежийSource: Space-Track

Эпоха: Sep 14, 2026, 14:26 UTC

1 45863U 20045A   26257.60170779 -.00000325  00000-0  00000-0 0  9997
2 45863   0.0413 108.8449 0002780 338.4098 256.9495  1.00270549 22756

Отслеживайте APSTAR 6D в реальном времени с AllMySat

Download on the App Store